Вернуться в каталог

COSMOS 2563

АктивенНавигацияHEO
NORAD 54223·PAYLOAD·🇷🇺 Russia

Запущен Nov 2, 2022 с Plesetsk Cosmodrome

Loading…

Ближайшие Пролёты (ближайшие 24 часа)

TLE

СвежийSource: Space-Track

Эпоха: Sep 14, 2026, 09:48 UTC

1 54223U 22145A   26257.40862931 -.00001053  00000-0  00000-0 0  9995
2 54223  63.1679 269.4641 6998681 269.9532  16.9107  2.00623041 28355

Отслеживайте COSMOS 2563 в реальном времени с AllMySat

Download on the App Store